Weather History for Aswan, Egypt

Change the Weather History Date:

Tuesday, April 16, 2013

  Actual Average Record
Temperature  
Mean Temperature 80 °F -  
Max Temperature 95 °F 96 °F 111 °F (1998)
Min Temperature 65 °F 71 °F 62 °F (2006)
Cooling Degree Days 15    
Growing Degree Days 30 (Base 50)    
Moisture  
Dew Point 24 °F    
Average Humidity 11    
Maximum Humidity 21    
Minimum Humidity 4    
Precipitation  
Precipitation 0.00 in 0.00 in - ()
Sea Level Pressure  
Sea Level Pressure 29.85 in    
Wind  
Wind Speed 6 mph ()    
Max Wind Speed 10 mph    
Max Gust Speed -    
Visibility 6.0 miles    
Events      
Averages and records for this station are not official NWS values.
T = Trace of Precipitation, MM = Missing Value Source: Averaged Metar Reports

Daily Weather History Graph

Daily Weather History Graph

Search for Another Location

Airport:

Trip Planner

Search our weather history database for the weather conditions in past years. The results will help you decide how hot, cold, wet, or windy it might be!

Date:

Astronomy

Apr. 16, 2013 Rise Set
Actual Time 5:26 AM EET 6:10 PM EET
Civil Twilight 5:03 AM EET 6:33 PM EET
Nautical Twilight 4:36 AM EET 7:01 PM EET
Astronomical Twilight 4:08 AM EET 7:29 PM EET
Moon 9:44 AM EET (4/16) 11:20 PM EET (4/16)
Length of Visible Light 13h 30m
Length of Day
12h 44m
Waxing Crescent, 31% of the Moon is Illuminated
Apr 16
Waxing Crescent
Apr 18
First Quarter
Apr 25
Full
May 2
Last Quarter
May 10
New

Hourly Weather History & Observations

Time (EET) Temp. Dew Point Humidity Pressure Visibility Wind Dir Wind Speed Gust Speed Precip Events Conditions
12:00 AM 75.2 °F 19.4 °F 12% 29.86 in - NW 6.9 mph - N/A   Clear
1:00 AM 73.4 °F 19.4 °F 13% 29.86 in - NW 9.2 mph - N/A   Clear
2:00 AM 73 °F 21 °F 6% 29.84 in 6 mi NW 6.9 mph - -  
2:00 AM 73.4 °F 21.2 °F 14% 29.83 in - NW 6.9 mph - N/A   Clear
3:00 AM 71.6 °F 21.2 °F 15% 29.83 in - NNW 5.8 mph - N/A   Clear
4:00 AM 69.8 °F 23.0 °F 17% 29.83 in - North 4.6 mph - N/A   Clear
5:00 AM 84.2 °F 23.0 °F 11% 29.86 in - Calm Calm - N/A   Clear
6:00 AM 68.0 °F 26.6 °F 21% 29.89 in - Calm Calm - N/A   Clear
7:00 AM 73.4 °F 26.6 °F 18% 29.89 in - North 3.5 mph - N/A   Clear
8:00 AM 77 °F 26 °F 7% 29.89 in 6 mi North 4.6 mph - -  
8:00 AM 77.0 °F 26.6 °F 16% 29.92 in - North 4.6 mph - N/A   Clear
9:00 AM 82.4 °F 28.4 °F 14% 29.92 in - NNW 5.8 mph - N/A   Clear
10:00 AM 86.0 °F 28.4 °F 12% 29.92 in - North 9.2 mph - N/A   Clear
11:00 AM 89.6 °F 30.2 °F 12% 29.89 in - North 9.2 mph - N/A   Clear
12:00 PM 89.6 °F 26.6 °F 10% 29.86 in - North 5.8 mph - N/A   Clear
1:00 PM 93.2 °F 26.6 °F 9% 29.86 in - NNE 10.4 mph - N/A   Clear
2:00 PM 94 °F 24 °F 4% 29.79 in 6 mi North 8.1 mph - -  
2:00 PM 95.0 °F 24.8 °F 8% 29.83 in - North 8.1 mph - N/A   Clear
3:00 PM 95.0 °F 21.2 °F 7% 29.80 in - NW 6.9 mph - N/A   Clear
4:00 PM 95.0 °F 17.6 °F 6% 29.80 in - WNW 9.2 mph - N/A   Clear
5:00 PM 95.0 °F 17.6 °F 6% 29.80 in - NW 10.4 mph - N/A   Clear
6:00 PM 91.4 °F 23.0 °F 8% 29.80 in - NW 8.1 mph - N/A   Clear
7:00 PM 89.6 °F 21.2 °F 8% 29.83 in - NW 10.4 mph - N/A   Clear
8:00 PM 85 °F 22 °F 4% 29.81 in 6 mi NNW 9.2 mph - -  
8:00 PM 86.0 °F 23.0 °F 10% 29.83 in - NNW 9.2 mph - N/A   Clear
9:00 PM 82.4 °F 26.6 °F 13% 29.86 in - North 6.9 mph - N/A   Clear
10:00 PM 78.8 °F 28.4 °F 16% 29.86 in - North 6.9 mph - N/A   Clear
11:00 PM 77.0 °F 28.4 °F 17% 29.89 in - North 6.9 mph - N/A   Clear